Regional Weather Roundup
Issued by NWS Goodland, KS

Home | Current Version | Previous Version | Graphics & Text | Print | Product List | Glossary On
Versions: 1 2 3 4 5 6 7 8 9 10 11 12 13 14 15 16 17 18 19 20 21 22 23 24 25 26 27 28 29 30 31 32 33 34 35 36 37 38 39 40 41 42 43 44 45 46 47 48 49 50
522
ASUS43 KGLD 192359
RWRGLD

GOODLAND FORECAST AREA HOURLY WEATHER ROUNDUP
NATIONAL WEATHER SERVICE GOODLAND KS
600 PM MDT THU OCT 19 2017

...OFFICIAL OBSERVATIONS...

CITY           SKY/WX    TMP DP  RH WIND       PRES   REMARKS
GOODLAND KS    CLOUDY    71  46  40 S14       29.93S
HILL CITY KS   CLEAR     75  41  29 S13       29.94S
IMPERIAL NEB   CLOUDY    71  42  35 SE12      29.89F
MCCOOK NEB     CLEAR     72  46  39 SE9       29.90F
AKRON CO       CLOUDY    70  35  27 SE13      29.91F
BURLINGTON CO  CLOUDY    68  45  43 S16       29.95S
LIMON CO       CLOUDY    61  34  36 SE13      29.97F
$$

...UNOFFICIAL OBSERVATIONS...

CITY           SKY/WX    TMP DP  RH WIND       PRES   REMARKS
NORTON KS      CLEAR     73  36  25 SE10      29.92S
SHARON SPRINGS   N/A     72  47  40 S12G18      N/A
TRENTON NEB      N/A     72  32  23 S7          N/A
YUMA CO        FAIR      68  36  30 SE8       29.90S
$$




USA.gov is the U.S. government's official web portal to all federal, state and local government web resources and services.